AEA17AZ LEMD-EDDF

Flight info

Callsign AEA17AZ
Flight time 1h 55m
Altitude 36000
Route PINAR N870 SEGRE N871 TOPTU DCT TOU DCT GAI DCT MEN DCT NINUN DCT LATAM DCT ETREK DCT LTP DCT SOPLO DCT OMASI DCT KINNI DCT SOSAL DCT KORED DCT BERSU DCT DITON/N0454F370 DCT LADOL/N0454F380 T163 EMPAX EMPAX5B
Aircraft B738/M-SDE2E3FGHIRWXY/LB1

Departure

Time 2026-05-04 17:16
Airport Adolfo Suárez Madrid–Barajas Airport (LEMD)

Arrival

Time 2026-05-04 19:12
Airport Frankfurt Main Airport (EDDF)
Time Latitude Longitude Altitude Speed Heading
2026-05-04 16:40 40.47088 -3.57224 1979 ft 0 kts 178°
2026-05-04 17:00 40.47087 -3.57225 1980 ft 0 kts 182°
2026-05-04 17:02 40.47110 -3.57239 1980 ft 3 kts 110°
2026-05-04 17:02 40.47117 -3.57279 1979 ft 0 kts 97°
2026-05-04 17:05 40.47135 -3.57231 1979 ft 5 kts 22°
2026-05-04 17:05 40.47269 -3.57206 1979 ft 16 kts
2026-05-04 17:06 40.47505 -3.57187 1981 ft 15 kts 336°
2026-05-04 17:06 40.47574 -3.57189 1982 ft 11 kts 48°
2026-05-04 17:07 40.47681 -3.57064 1981 ft 11 kts 351°
2026-05-04 17:07 40.47703 -3.57077 1982 ft 11 kts 327°
2026-05-04 17:07 40.47837 -3.57214 1982 ft 20 kts 322°
2026-05-04 17:07 40.47954 -3.57330 1979 ft 21 kts 323°
2026-05-04 17:08 40.48066 -3.57447 1981 ft 20 kts 321°
2026-05-04 17:08 40.48283 -3.57667 1980 ft 19 kts 322°
2026-05-04 17:08 40.48381 -3.57764 1979 ft 15 kts 324°
2026-05-04 17:09 40.48438 -3.57815 1979 ft 15 kts 329°
2026-05-04 17:09 40.48526 -3.57879 1981 ft 14 kts 331°
2026-05-04 17:09 40.48613 -3.57931 1979 ft 14 kts 344°
2026-05-04 17:10 40.48766 -3.57872 1982 ft 13 kts 86°
2026-05-04 17:10 40.48766 -3.57351 1983 ft 25 kts 90°
2026-05-04 17:11 40.48768 -3.57130 1983 ft 23 kts 86°
2026-05-04 17:11 40.48768 -3.56921 1980 ft 23 kts 92°
2026-05-04 17:11 40.48768 -3.56522 1981 ft 21 kts 91°
2026-05-04 17:12 40.48769 -3.56330 1981 ft 21 kts 91°
2026-05-04 17:12 40.48911 -3.56143 1979 ft 18 kts
2026-05-04 17:13 40.49256 -3.56143 1980 ft 16 kts
2026-05-04 17:14 40.49604 -3.56147 1979 ft 21 kts 359°
2026-05-04 17:14 40.49756 -3.56149 1979 ft 22 kts
2026-05-04 17:14 40.49955 -3.56019 1981 ft 17 kts 69°
2026-05-04 17:15 40.50041 -3.55931 1981 ft 16 kts 13°
2026-05-04 17:15 40.50163 -3.55924 1979 ft 0 kts
2026-05-04 17:16 40.50308 -3.55924 1982 ft 53 kts 359°
2026-05-04 17:16 40.53110 -3.55859 2609 ft 171 kts
2026-05-04 17:17 40.54312 -3.55699 3283 ft 180 kts
2026-05-04 17:17 40.58303 -3.54270 5072 ft 213 kts 13°
2026-05-04 17:18 40.59706 -3.53524 5466 ft 233 kts 30°
2026-05-04 17:18 40.62409 -3.50592 6331 ft 268 kts 38°
2026-05-04 17:19 40.65362 -3.47212 7665 ft 287 kts 38°
2026-05-04 17:19 40.68442 -3.43719 9243 ft 297 kts 39°
2026-05-04 17:20 40.71666 -3.40091 10479 ft 319 kts 39°
2026-05-04 17:20 40.75308 -3.36005 10857 ft 367 kts 39°
2026-05-04 17:20 40.77284 -3.33785 11321 ft 379 kts 39°
2026-05-04 17:21 40.81343 -3.29219 12738 ft 387 kts 39°
2026-05-04 17:21 40.85225 -3.24215 14073 ft 398 kts 59°
2026-05-04 17:22 40.86270 -3.20826 14710 ft 402 kts 75°
2026-05-04 17:22 40.86979 -3.17234 15332 ft 406 kts 76°
2026-05-04 17:23 40.89059 -3.06139 17040 ft 422 kts 76°
2026-05-04 17:23 40.89783 -3.02361 17621 ft 426 kts 76°
2026-05-04 17:23 40.91270 -2.94701 18695 ft 435 kts 76°
2026-05-04 17:24 40.92027 -2.90814 19244 ft 437 kts 76°
2026-05-04 17:24 40.94318 -2.79018 20767 ft 447 kts 76°
2026-05-04 17:25 40.95091 -2.75025 21259 ft 450 kts 76°
2026-05-04 17:25 40.96648 -2.66950 22212 ft 456 kts 75°
2026-05-04 17:26 40.98216 -2.58784 23247 ft 460 kts 76°
2026-05-04 17:26 41.00621 -2.46346 24334 ft 470 kts 76°
2026-05-04 17:27 41.02956 -2.38248 24991 ft 475 kts 56°
2026-05-04 17:27 41.07400 -2.31906 25652 ft 475 kts 36°
2026-05-04 17:28 41.12638 -2.26485 26308 ft 480 kts 35°
2026-05-04 17:29 41.20588 -2.18191 27187 ft 489 kts 36°
2026-05-04 17:29 41.28626 -2.09628 28007 ft 498 kts 36°
2026-05-04 17:30 41.36778 -2.00894 28905 ft 504 kts 36°
2026-05-04 17:31 41.42230 -1.95039 29675 ft 503 kts 36°
2026-05-04 17:31 41.50399 -1.86246 30680 ft 502 kts 36°
2026-05-04 17:32 41.55829 -1.80386 31284 ft 503 kts 37°
2026-05-04 17:33 41.63976 -1.71569 32177 ft 503 kts 37°
2026-05-04 17:33 41.66692 -1.68622 32481 ft 502 kts 37°
2026-05-04 17:34 41.74833 -1.59773 33287 ft 503 kts 37°
2026-05-04 17:34 41.77546 -1.56817 33592 ft 503 kts 37°
2026-05-04 17:35 41.85634 -1.47984 34340 ft 502 kts 37°
2026-05-04 17:35 41.91041 -1.42063 34808 ft 501 kts 37°
2026-05-04 17:35 41.93741 -1.39100 35028 ft 501 kts 37°
2026-05-04 17:36 41.96439 -1.36138 35245 ft 501 kts 37°
2026-05-04 17:36 41.99137 -1.33171 35482 ft 501 kts 37°
2026-05-04 17:36 42.01825 -1.30212 35751 ft 499 kts 37°
2026-05-04 17:36 42.04510 -1.27253 35956 ft 499 kts 38°
2026-05-04 17:37 42.07202 -1.24284 35950 ft 502 kts 37°
2026-05-04 17:37 42.12599 -1.18318 35962 ft 501 kts 38°
2026-05-04 17:38 42.17962 -1.12365 35941 ft 498 kts 38°
2026-05-04 17:38 42.23290 -1.06437 35958 ft 496 kts 38°
2026-05-04 17:39 42.31251 -0.97554 35953 ft 494 kts 38°
2026-05-04 17:39 42.36547 -0.91629 35955 ft 495 kts 38°
2026-05-04 17:40 42.41848 -0.85665 35964 ft 497 kts 41°
2026-05-04 17:40 42.46430 -0.78658 35965 ft 498 kts 53°
2026-05-04 17:41 42.50603 -0.71139 35947 ft 500 kts 53°
2026-05-04 17:41 42.54803 -0.63610 35957 ft 501 kts 53°
2026-05-04 17:42 42.59053 -0.56088 35975 ft 503 kts 53°
2026-05-04 17:42 42.63296 -0.48595 35987 ft 504 kts 53°
2026-05-04 17:43 42.67567 -0.41028 35985 ft 505 kts 53°
2026-05-04 17:43 42.71836 -0.33438 35988 ft 505 kts 53°
2026-05-04 17:44 42.76087 -0.25858 35990 ft 504 kts 53°
2026-05-04 17:44 42.80338 -0.18271 35997 ft 503 kts 53°
2026-05-04 17:45 42.84723 -0.10873 36000 ft 501 kts 51°
2026-05-04 17:45 42.89179 -0.03569 35995 ft 500 kts 51°
2026-05-04 17:46 42.93603 0.03744 35989 ft 499 kts 51°
2026-05-04 17:46 42.97988 0.11068 36007 ft 498 kts 51°
2026-05-04 17:47 43.02361 0.18410 36026 ft 499 kts 52°
2026-05-04 17:47 43.06741 0.25782 36024 ft 499 kts 52°
2026-05-04 17:48 43.11112 0.33154 36013 ft 500 kts 52°
2026-05-04 17:48 43.15489 0.40553 35991 ft 500 kts 52°
2026-05-04 17:49 43.19857 0.47956 35999 ft 500 kts 52°
2026-05-04 17:49 43.24227 0.55381 36017 ft 500 kts 52°
2026-05-04 17:50 43.28591 0.62816 35994 ft 500 kts 52°
2026-05-04 17:50 43.32952 0.70263 35996 ft 500 kts 52°
2026-05-04 17:51 43.37300 0.77708 35960 ft 499 kts 53°
2026-05-04 17:51 43.41638 0.85154 35981 ft 499 kts 53°
2026-05-04 17:52 43.45943 0.92562 35978 ft 499 kts 53°
2026-05-04 17:52 43.50296 1.00073 35973 ft 499 kts 53°
2026-05-04 17:53 43.54594 1.07507 35960 ft 499 kts 53°
2026-05-04 17:53 43.58910 1.14993 35933 ft 499 kts 53°
2026-05-04 17:54 43.63216 1.22479 35950 ft 498 kts 54°
2026-05-04 17:54 43.67521 1.29984 35941 ft 498 kts 54°
2026-05-04 17:55 43.71722 1.37599 35937 ft 498 kts 56°
2026-05-04 17:55 43.75790 1.45312 35942 ft 498 kts 56°
2026-05-04 17:56 43.79878 1.53055 35913 ft 498 kts 56°
2026-05-04 17:56 43.83975 1.60779 35950 ft 498 kts 56°
2026-05-04 17:57 43.87381 1.67203 35943 ft 498 kts 56°
2026-05-04 17:57 43.91471 1.74940 35939 ft 498 kts 56°
2026-05-04 17:58 43.95558 1.82695 35938 ft 498 kts 56°
2026-05-04 17:58 43.99540 1.90546 35936 ft 497 kts 58°
2026-05-04 17:59 44.03444 1.98458 35944 ft 496 kts 58°
2026-05-04 18:00 44.09303 2.10324 35941 ft 496 kts 58°
2026-05-04 18:00 44.13210 2.18227 35943 ft 496 kts 58°
2026-05-04 18:01 44.17113 2.26133 35951 ft 495 kts 58°
2026-05-04 18:01 44.21010 2.34051 35946 ft 495 kts 58°
2026-05-04 18:02 44.26850 2.45963 35951 ft 497 kts 58°
2026-05-04 18:02 44.30748 2.53941 35938 ft 498 kts 58°
2026-05-04 18:03 44.34651 2.61951 35944 ft 499 kts 58°
2026-05-04 18:03 44.38527 2.69926 35923 ft 500 kts 57°
2026-05-04 18:04 44.42432 2.77983 35939 ft 501 kts 58°
2026-05-04 18:05 44.48291 2.90117 35958 ft 502 kts 58°
2026-05-04 18:05 44.52196 2.98233 35953 ft 503 kts 58°
2026-05-04 18:06 44.58055 3.10453 35970 ft 503 kts 58°
2026-05-04 18:06 44.61893 3.18657 35958 ft 503 kts 61°
2026-05-04 18:07 44.65338 3.27176 35972 ft 501 kts 63°
2026-05-04 18:07 44.68695 3.35751 35963 ft 501 kts 63°
2026-05-04 18:08 44.72098 3.44292 35975 ft 501 kts 63°
2026-05-04 18:08 44.75517 3.52827 35979 ft 501 kts 63°
2026-05-04 18:09 44.82302 3.69929 35977 ft 500 kts 63°
2026-05-04 18:10 44.85675 3.78492 35977 ft 500 kts 63°
2026-05-04 18:10 44.89021 3.87009 35972 ft 499 kts 63°
2026-05-04 18:11 44.92402 3.95638 35977 ft 499 kts 63°
2026-05-04 18:11 44.95736 4.04174 35987 ft 500 kts 63°
2026-05-04 18:12 44.99086 4.12777 36009 ft 500 kts 63°
2026-05-04 18:12 45.02457 4.21460 35962 ft 500 kts 63°
2026-05-04 18:13 45.05795 4.30080 36008 ft 500 kts 63°
2026-05-04 18:14 45.10774 4.42975 36006 ft 500 kts 63°
2026-05-04 18:14 45.14099 4.51622 36023 ft 500 kts 63°
2026-05-04 18:15 45.20731 4.68952 36014 ft 499 kts 63°
2026-05-04 18:16 45.24029 4.77620 36016 ft 499 kts 63°
2026-05-04 18:16 45.27318 4.86292 36027 ft 499 kts 63°
2026-05-04 18:17 45.32238 4.99320 36014 ft 499 kts 63°
2026-05-04 18:18 45.37140 5.12358 35994 ft 498 kts 63°
2026-05-04 18:18 45.40399 5.21061 35994 ft 498 kts 63°
2026-05-04 18:19 45.45268 5.34117 35995 ft 498 kts 64°
2026-05-04 18:19 45.48678 5.42711 35992 ft 500 kts 55°
2026-05-04 18:20 45.53403 5.49926 36022 ft 498 kts 40°
2026-05-04 18:20 45.58647 5.56416 36024 ft 499 kts 40°
2026-05-04 18:21 45.63855 5.62974 36025 ft 499 kts 41°
2026-05-04 18:21 45.69023 5.69608 36019 ft 500 kts 41°
2026-05-04 18:22 45.74196 5.76263 36030 ft 500 kts 41°
2026-05-04 18:22 45.79374 5.82915 36023 ft 500 kts 41°
2026-05-04 18:23 45.84513 5.89532 36022 ft 500 kts 41°
2026-05-04 18:23 45.89679 5.96204 36018 ft 499 kts 41°
2026-05-04 18:24 45.94835 6.02882 36022 ft 499 kts 41°
2026-05-04 18:24 45.99995 6.09586 36026 ft 500 kts 41°
2026-05-04 18:25 46.05180 6.16340 36029 ft 500 kts 41°
2026-05-04 18:25 46.10285 6.23037 36015 ft 499 kts 43°
2026-05-04 18:26 46.15249 6.30028 36027 ft 498 kts 45°
2026-05-04 18:26 46.20148 6.37106 36041 ft 498 kts 45°
2026-05-04 18:27 46.25059 6.44155 36020 ft 498 kts 44°
2026-05-04 18:27 46.29976 6.51185 36021 ft 497 kts 44°
2026-05-04 18:28 46.34881 6.58210 36029 ft 495 kts 44°
2026-05-04 18:28 46.39769 6.65230 36047 ft 495 kts 44°
2026-05-04 18:29 46.44649 6.72259 36032 ft 494 kts 44°
2026-05-04 18:29 46.49522 6.79300 36037 ft 494 kts 44°
2026-05-04 18:30 46.56773 6.89932 36016 ft 493 kts 48°
2026-05-04 18:31 46.61129 6.97630 36027 ft 493 kts 52°
2026-05-04 18:31 46.65355 7.05480 36021 ft 493 kts 51°
2026-05-04 18:32 46.69620 7.13279 36023 ft 492 kts 51°
2026-05-04 18:32 46.73883 7.20996 36017 ft 492 kts 51°
2026-05-04 18:33 46.78201 7.28825 36024 ft 492 kts 51°
2026-05-04 18:33 46.82454 7.36566 35998 ft 492 kts 51°
2026-05-04 18:34 46.86723 7.44362 36015 ft 491 kts 51°
2026-05-04 18:34 46.90969 7.52158 36016 ft 490 kts 51°
2026-05-04 18:35 46.95210 7.59970 36033 ft 490 kts 51°
2026-05-04 18:35 46.99436 7.67775 36027 ft 489 kts 52°
2026-05-04 18:36 47.03659 7.75597 36007 ft 489 kts 51°
2026-05-04 18:36 47.07872 7.83422 36005 ft 489 kts 52°
2026-05-04 18:37 47.12077 7.91252 36026 ft 488 kts 52°
2026-05-04 18:37 47.16020 7.99358 36021 ft 487 kts 58°
2026-05-04 18:38 47.19530 8.07871 36024 ft 487 kts 59°
2026-05-04 18:38 47.23063 8.16388 36018 ft 488 kts 59°
2026-05-04 18:39 47.26648 8.24864 36020 ft 488 kts 58°
2026-05-04 18:39 47.30871 8.32611 36031 ft 486 kts 40°
2026-05-04 18:40 47.36471 8.37997 36023 ft 483 kts 24°
2026-05-04 18:40 47.42583 8.42207 36015 ft 483 kts 23°
2026-05-04 18:41 47.48679 8.46393 35989 ft 483 kts 23°
2026-05-04 18:41 47.54745 8.50656 35995 ft 483 kts 24°
2026-05-04 18:42 47.60767 8.54943 35998 ft 483 kts 24°
2026-05-04 18:42 47.66818 8.59267 35993 ft 483 kts 24°
2026-05-04 18:43 47.72915 8.63632 35995 ft 483 kts 24°
2026-05-04 18:43 47.78914 8.67935 35993 ft 483 kts 24°
2026-05-04 18:44 47.84975 8.72294 35993 ft 483 kts 24°
2026-05-04 18:44 47.91024 8.76655 35995 ft 483 kts 25°
2026-05-04 18:45 47.97074 8.81029 35992 ft 483 kts 25°
2026-05-04 18:45 48.03128 8.85417 35994 ft 483 kts 25°
2026-05-04 18:46 48.09174 8.89811 35982 ft 483 kts 25°
2026-05-04 18:46 48.14201 8.93448 35986 ft 483 kts 22°
2026-05-04 18:47 48.20626 8.96112 35977 ft 478 kts
2026-05-04 18:47 48.27241 8.97012 35989 ft 477 kts
2026-05-04 18:48 48.33863 8.97914 35983 ft 478 kts
2026-05-04 18:48 48.40405 8.98908 35952 ft 460 kts
2026-05-04 18:48 48.43538 8.99394 35968 ft 445 kts
2026-05-04 18:49 48.46574 8.99862 35958 ft 432 kts
2026-05-04 18:49 48.49514 9.00314 35963 ft 419 kts
2026-05-04 18:49 48.52369 9.00753 35947 ft 405 kts
2026-05-04 18:50 48.57951 9.01606 35986 ft 407 kts
2026-05-04 18:50 48.63718 9.02514 35511 ft 434 kts
2026-05-04 18:50 48.66788 9.03176 34908 ft 457 kts
2026-05-04 18:51 48.70000 9.03964 34286 ft 479 kts
2026-05-04 18:51 48.73340 9.04809 33613 ft 491 kts
2026-05-04 18:51 48.76715 9.05654 32870 ft 489 kts
2026-05-04 18:51 48.80048 9.06470 32160 ft 487 kts
2026-05-04 18:52 48.83399 9.07274 31472 ft 484 kts
2026-05-04 18:52 48.86704 9.08064 31086 ft 476 kts
2026-05-04 18:52 48.89957 9.08767 30504 ft 472 kts
2026-05-04 18:52 48.93222 9.09242 29872 ft 469 kts
2026-05-04 18:53 48.96465 9.09639 29169 ft 467 kts
2026-05-04 18:53 48.99703 9.10060 28459 ft 467 kts
2026-05-04 18:53 49.02933 9.10510 27770 ft 465 kts
2026-05-04 18:53 49.06144 9.10970 27094 ft 464 kts
2026-05-04 18:54 49.09353 9.11432 26426 ft 462 kts
2026-05-04 18:54 49.12549 9.11891 25780 ft 460 kts
2026-05-04 18:54 49.15765 9.12353 25138 ft 457 kts
2026-05-04 18:54 49.18925 9.12806 24528 ft 455 kts
2026-05-04 18:55 49.22036 9.13252 23920 ft 453 kts
2026-05-04 18:55 49.28320 9.14172 22579 ft 449 kts
2026-05-04 18:55 49.31349 9.14991 21890 ft 447 kts 11°
2026-05-04 18:56 49.34372 9.16082 21186 ft 446 kts 13°
2026-05-04 18:56 49.37376 9.17231 20481 ft 444 kts 13°
2026-05-04 18:56 49.40369 9.18365 19805 ft 442 kts 13°
2026-05-04 18:56 49.43350 9.19461 19126 ft 439 kts 12°
2026-05-04 18:57 49.46314 9.20525 18476 ft 437 kts 12°
2026-05-04 18:57 49.49253 9.21568 17740 ft 429 kts 12°
2026-05-04 18:57 49.52129 9.22590 17015 ft 420 kts 12°
2026-05-04 18:57 49.54944 9.23593 16254 ft 410 kts 12°
2026-05-04 18:58 49.57690 9.24573 15500 ft 400 kts 12°
2026-05-04 18:58 49.60377 9.25534 14780 ft 392 kts 12°
2026-05-04 18:58 49.63012 9.26478 14059 ft 386 kts 12°
2026-05-04 18:58 49.65601 9.27405 13304 ft 379 kts 12°
2026-05-04 18:59 49.68154 9.28320 12524 ft 374 kts 12°
2026-05-04 18:59 49.70670 9.29224 11740 ft 369 kts 12°
2026-05-04 18:59 49.73134 9.30110 11328 ft 356 kts 12°
2026-05-04 18:59 49.75502 9.30963 11201 ft 347 kts 12°
2026-05-04 19:00 49.77856 9.31810 11051 ft 347 kts 12°
2026-05-04 19:00 49.80227 9.32662 10575 ft 352 kts 11°
2026-05-04 19:00 49.82623 9.32936 10036 ft 342 kts 349°
2026-05-04 19:00 49.84853 9.31928 9569 ft 327 kts 336°
2026-05-04 19:01 49.86918 9.30612 9170 ft 315 kts 334°
2026-05-04 19:01 49.88900 9.29284 8777 ft 306 kts 334°
2026-05-04 19:01 49.90827 9.27984 8378 ft 298 kts 334°
2026-05-04 19:01 49.92703 9.26709 8000 ft 291 kts 334°
2026-05-04 19:02 49.94542 9.25450 7622 ft 288 kts 334°
2026-05-04 19:02 49.96375 9.24182 7249 ft 289 kts 334°
2026-05-04 19:02 49.98222 9.22895 6896 ft 291 kts 334°
2026-05-04 19:02 50.00047 9.21617 6522 ft 285 kts 334°
2026-05-04 19:03 50.01842 9.20349 6129 ft 281 kts 334°
2026-05-04 19:03 50.03610 9.19091 5763 ft 279 kts 334°
2026-05-04 19:03 50.05370 9.17824 5383 ft 278 kts 334°
2026-05-04 19:03 50.07110 9.16548 5029 ft 276 kts 334°
2026-05-04 19:04 50.08838 9.15261 4739 ft 272 kts 334°
2026-05-04 19:04 50.10524 9.14004 4624 ft 267 kts 334°
2026-05-04 19:04 50.12093 9.12500 4466 ft 266 kts 314°
2026-05-04 19:04 50.13065 9.10121 4336 ft 256 kts 288°
2026-05-04 19:05 50.13572 9.07532 4206 ft 246 kts 284°
2026-05-04 19:05 50.14008 9.04959 4137 ft 244 kts 281°
2026-05-04 19:05 50.14107 9.02343 4103 ft 242 kts 258°
2026-05-04 19:05 50.13629 8.99840 4122 ft 242 kts 252°
2026-05-04 19:06 50.13115 8.97331 4115 ft 243 kts 251°
2026-05-04 19:06 50.12573 8.94841 4108 ft 242 kts 250°
2026-05-04 19:06 50.12022 8.92419 4095 ft 236 kts 249°
2026-05-04 19:06 50.11470 8.90051 4086 ft 224 kts 249°
2026-05-04 19:07 50.10972 8.87851 4102 ft 207 kts 250°
2026-05-04 19:07 50.10508 8.85801 3976 ft 196 kts 249°
2026-05-04 19:07 50.10042 8.83828 3739 ft 192 kts 249°
2026-05-04 19:07 50.09564 8.81902 3522 ft 189 kts 248°
2026-05-04 19:08 50.09083 8.79997 3239 ft 189 kts 248°
2026-05-04 19:08 50.08625 8.78117 2955 ft 184 kts 250°
2026-05-04 19:08 50.08204 8.76301 2730 ft 173 kts 251°
2026-05-04 19:08 50.07799 8.74573 2571 ft 164 kts 251°
2026-05-04 19:09 50.07397 8.72930 2328 ft 165 kts 250°
2026-05-04 19:09 50.06991 8.71276 2059 ft 163 kts 251°
2026-05-04 19:09 50.06609 8.69638 1807 ft 158 kts 251°
2026-05-04 19:09 50.06229 8.68042 1646 ft 157 kts 252°
2026-05-04 19:10 50.05857 8.66431 1444 ft 160 kts 252°
2026-05-04 19:10 50.05463 8.64793 1218 ft 162 kts 250°
2026-05-04 19:10 50.05067 8.63174 993 ft 159 kts 252°
2026-05-04 19:10 50.04694 8.61582 804 ft 154 kts 252°
2026-05-04 19:11 50.04329 8.60019 603 ft 154 kts 251°
2026-05-04 19:11 50.03960 8.58464 387 ft 151 kts 251°
2026-05-04 19:11 50.03624 8.57055 352 ft 123 kts 250°
2026-05-04 19:11 50.03383 8.56041 351 ft 73 kts 249°
2026-05-04 19:12 50.03239 8.55441 347 ft 38 kts 249°
2026-05-04 19:12 50.03196 8.54797 339 ft 19 kts 279°
2026-05-04 19:12 50.03231 8.54612 332 ft 18 kts 323°
2026-05-04 19:13 50.03310 8.54712 335 ft 17 kts 69°
2026-05-04 19:13 50.03352 8.54883 338 ft 17 kts 69°
2026-05-04 19:13 50.03391 8.55048 347 ft 16 kts 70°
2026-05-04 19:13 50.03431 8.55214 349 ft 18 kts 69°
2026-05-04 19:14 50.03477 8.55410 352 ft 20 kts 70°
2026-05-04 19:14 50.03524 8.55605 350 ft 19 kts 69°
2026-05-04 19:14 50.03574 8.55811 350 ft 23 kts 69°
2026-05-04 19:14 50.03634 8.56053 351 ft 23 kts 70°
2026-05-04 19:15 50.03686 8.56287 355 ft 23 kts 69°
2026-05-04 19:15 50.03742 8.56511 357 ft 22 kts 69°
2026-05-04 19:15 50.03796 8.56737 359 ft 25 kts 70°
2026-05-04 19:15 50.03864 8.57021 356 ft 30 kts 70°
2026-05-04 19:16 50.03931 8.57310 367 ft 28 kts 70°
2026-05-04 19:16 50.03997 8.57582 368 ft 26 kts 69°
2026-05-04 19:16 50.04059 8.57837 369 ft 24 kts 69°
2026-05-04 19:16 50.04117 8.58074 369 ft 23 kts 69°
2026-05-04 19:17 50.04171 8.58303 372 ft 22 kts 70°
2026-05-04 19:17 50.04224 8.58525 370 ft 22 kts 70°
2026-05-04 19:17 50.04274 8.58741 370 ft 21 kts 69°
2026-05-04 19:17 50.04326 8.58951 374 ft 21 kts 70°
2026-05-04 19:18 50.04382 8.59189 375 ft 26 kts 69°
2026-05-04 19:18 50.04444 8.59431 375 ft 19 kts 59°
2026-05-04 19:18 50.04563 8.59466 372 ft 18 kts 356°
2026-05-04 19:18 50.04689 8.59445 371 ft 18 kts 344°
2026-05-04 19:19 50.04779 8.59396 371 ft 10 kts 340°
2026-05-04 19:19 50.04824 8.59367 369 ft 0 kts 334°
2026-05-04 19:19 50.04827 8.59365 369 ft 0 kts 335°
2026-05-04 19:19 50.04835 8.59359 369 ft 3 kts 339°
2026-05-04 19:20 50.04869 8.59356 369 ft 8 kts
2026-05-04 19:20 50.04953 8.59349 367 ft 16 kts 348°
2026-05-04 19:20 50.05060 8.59293 362 ft 14 kts 325°
2026-05-04 19:20 50.05067 8.59160 360 ft 13 kts 248°
2026-05-04 19:21 50.05049 8.59086 360 ft 1 kts 249°
2026-05-04 19:21 50.05046 8.59074 365 ft 1 kts 249°
2026-05-04 19:21 50.05038 8.59041 360 ft 6 kts 249°
2026-05-04 19:21 50.05032 8.58991 364 ft 3 kts 296°
2026-05-04 19:22 50.05058 8.58994 360 ft 6 kts
2026-05-04 19:22 50.05111 8.58979 361 ft 7 kts 340°
2026-05-04 19:22 50.05129 8.58969 359 ft 0 kts 339°
2026-05-04 19:22 50.05131 8.58968 359 ft 0 kts 339°